{"data":{"norad_id":49402,"intl_designator":"2021-102H","name":"KOSEN-1","alt_names":[],"object_type":"PAYLOAD","status":"ACTIVE","operator":null,"country":"JPN","launch_date":"2021-11-09","launch_site_code":"KSCUT","launch_vehicle":null,"mission":null,"orbit_class":"UNKNOWN","rcs_meters":null,"size_class":null,"mass_kg":null,"dimensions":null,"purposes":[],"wikipedia_slug":null,"has_3d_model":false,"image_url":null,"decayed_at":null,"tle_current":{"epoch":"2026-05-25T01:40:42.160224Z","epoch_age_seconds":75890,"freshness":"FRESH","line1":"1 49402U 21102H   26145.06993241  .00006574  00000+0  25441-3 0  9997","line2":"2 49402  97.3207 187.6803 0011903 291.3952  68.6016 15.26464520250499","mean_motion":15.2646452,"eccentricity":0.0011903,"inclination_deg":97.3207,"raan_deg":187.6803,"arg_perigee_deg":291.3952,"mean_anomaly_deg":68.6016,"bstar":0.00025441,"rev_number":25049,"period_min":94.335635131565,"perigee_km":478.22043031715,"apogee_km":494.56212633654,"semimajor_km":6864.5282783268,"source":"CELESTRAK","updated_at":"2026-05-25T13:37:57.196338Z"}}}